sat.trackr.live / text

‹ back to catalog

STARLINK-2640

NORAD 48438 · 2021-040L

PAYLOAD ACTIVE UNKNOWN

§ Identity

Operator
Country
US
Launch date
2021-05-09
Launch site
AFETR
Launch vehicle
Mass (kg)
RCS (m²)

Purposes: comms

External: N2YO · Heavens-Above · Gunter

§ Orbital elements

Epoch: 2026-09-12T15:31:54.484032Z

Period
94.01 min
Inclination
53.1618°
Eccentricity
0.0001212
Mean motion
15.31696575 rev/d
Perigee alt
469.9 km
Apogee alt
471.6 km
Semi-major
6,848.9 km
B*
9.9238e-5
RAAN
28.1577°
Arg perigee
85.6349°
Mean anomaly
274.4791°
Rev number
29,532

§ Raw data

STARLINK-26401 48438U 21040L   26255.64715838  .00002715  00000+0  99238-4 0  99952 48438  53.1618  28.1577 0001212  85.6349 274.4791 15.31696575295327

JSON: /api/v1/satellites/48438 · /tle

For live sub-satellite position, see the globe view (requires WebGL).

§ Visibility from observer

Set your observer location to see the next 7 days of passes ≥ 10°. The values pass through the URL so the page stays shareable.

No JS? Fill the form by hand. The geolocation button needs JavaScript.